Weather History for Worland, WY

Change the Weather History Date:

Wednesday, January 30, 2013

  Actual Average Record
Temperature  
Mean Temperature 12 °F 19 °F  
Max Temperature 24 °F 32 °F 54 °F (1974)
Min Temperature 0 °F 5 °F -29 °F (1979)
Degree Days  
Heating Degree Days 53 46  
Month to date heating degree days 1538 1439  
Since 1 July heating degree days 4280 4802  
Cooling Degree Days 0 0  
Month to date cooling degree days 0 0  
Year to date cooling degree days 0 0  
Moisture  
Dew Point 13 °F    
Average Humidity 86    
Maximum Humidity 92    
Minimum Humidity 80    
Precipitation  
Precipitation T in 0.00 in 0.49 in (1981)
Month to date precipitation 0.10 0.22  
Year to date precipitation 0.10 0.22  
Sea Level Pressure  
Sea Level Pressure 30.02 in    
Wind  
Wind Speed 1 mph (NNE)    
Max Wind Speed 49 mph    
Max Gust Speed 79 mph    
Visibility 5 miles    
Events Snow    
T = Trace of Precipitation, MM = Missing Value Source: NWS Daily Summary

Daily Weather History Graph

Daily Weather History Graph

Search for Another Location

Airport:

Trip Planner

Search our weather history database for the weather conditions in past years. The results will help you decide how hot, cold, wet, or windy it might be!

Date:

Astronomy

Jan. 30, 2013 Rise Set
Actual Time 7:30 AM MST 5:19 PM MST
Civil Twilight 7:00 AM MST 5:50 PM MST
Nautical Twilight 6:25 AM MST 6:25 PM MST
Astronomical Twilight 5:51 AM MST 6:59 PM MST
Moon 9:32 PM MST 8:50 AM MST
Length of Visible Light 10h 50m
Length of Day
9h 49m
Waning Gibbous, 87% of the Moon is Illuminated
Jan 30
Waning Gibbous
Feb 3
Last Quarter
Feb 10
New
Feb 17
First Quarter
Feb 25
Full

Hourly Weather History & Observations

Time (MST) Temp. Windchill Dew Point Humidity Pressure Visibility Wind Dir Wind Speed Gust Speed Precip Events Conditions
12:53 AM 7.0 °F -1.7 °F 3.0 °F 84% 30.17 in 9.0 mi SE 4.6 mph - N/A   Scattered Clouds
1:53 AM 1.0 °F -6.7 °F -2.0 °F 87% 30.15 in 7.0 mi NW 3.5 mph - N/A   Clear
2:53 AM 1.0 °F - -2.0 °F 87% 30.14 in 7.0 mi Calm Calm - N/A   Mostly Cloudy
3:53 AM 6.1 °F -4.3 °F 1.9 °F 83% 30.08 in 9.0 mi South 5.8 mph - N/A   Overcast
4:53 AM 6.1 °F - 1.9 °F 83% 30.09 in 9.0 mi Calm Calm - N/A   Mostly Cloudy
5:53 AM 7.0 °F - 3.0 °F 84% 30.05 in 8.0 mi Calm Calm - N/A   Overcast
6:53 AM 7.0 °F 0.1 °F 3.0 °F 84% 30.07 in 8.0 mi SW 3.5 mph - N/A   Overcast
7:53 AM 9.0 °F - 5.0 °F 84% 30.09 in 6.0 mi Calm Calm - N/A   Overcast
8:53 AM 10.9 °F - 6.1 °F 81% 30.12 in 7.0 mi Calm Calm - N/A   Overcast
9:53 AM 14.0 °F - 8.1 °F 77% 30.11 in 3.0 mi Calm Calm - 0.00 in Snow Light Snow
10:23 AM 15.8 °F - 10.4 °F 79% 29.89 in 2.0 mi Calm Calm - 0.00 in Snow Light Snow
10:31 AM 14.0 °F - 10.4 °F 86% 29.89 in 1.2 mi Calm Calm - 0.00 in Snow Light Snow
10:45 AM 15.8 °F - 10.4 °F 79% 29.90 in 1.5 mi Calm Calm - 0.00 in Snow Light Snow
10:53 AM 16.0 °F - 10.9 °F 81% 30.11 in 2.5 mi Calm Calm - 0.00 in Snow Light Snow
11:01 AM 17.6 °F - 12.2 °F 79% 29.90 in 1.8 mi Calm Calm - 0.00 in Snow Light Snow
11:35 AM 17.6 °F - 12.2 °F 79% 29.89 in 2.0 mi Calm Calm - 0.00 in Snow Light Snow
11:53 AM 18.0 °F - 12.9 °F 81% 30.09 in 6.0 mi Calm Calm - 0.00 in   Haze
12:53 PM 19.0 °F 12.3 °F 15.1 °F 85% 30.07 in 5.0 mi NNE 4.6 mph - N/A   Overcast
1:53 PM 21.9 °F - 17.1 °F 82% 30.05 in 9.0 mi Calm Calm - N/A   Overcast
2:53 PM 21.9 °F - 17.1 °F 82% 30.05 in 9.0 mi Calm Calm - N/A   Partly Cloudy
3:53 PM 21.9 °F 15.7 °F 18.0 °F 85% 30.05 in 9.0 mi NE 4.6 mph - N/A   Overcast
4:53 PM 21.9 °F 17.2 °F 19.0 °F 89% 30.06 in 8.0 mi North 3.5 mph - N/A   Overcast
5:38 PM 21.2 °F 14.9 °F 19.4 °F 93% 29.88 in 2.0 mi NNE 4.6 mph - 0.00 in Snow Light Snow
5:50 PM 21.2 °F - 19.4 °F 93% 29.88 in 1.8 mi Calm Calm - 0.00 in Snow Light Snow
5:53 PM 21.9 °F - 19.9 °F 92% 30.06 in 1.8 mi Calm Calm - 0.00 in Snow Light Snow
6:06 PM 21.2 °F - 19.4 °F 93% 29.88 in 2.0 mi Calm Calm - 0.00 in Snow Light Snow
6:14 PM 21.2 °F - 19.4 °F 93% 29.88 in 2.0 mi Calm Calm - 0.00 in Snow Light Snow
6:53 PM 21.0 °F - 19.9 °F 96% 30.07 in 2.5 mi Calm Calm - 0.00 in Snow Light Snow
7:13 PM 21.2 °F - 19.4 °F 93% 29.88 in 3.0 mi Calm Calm - 0.00 in Snow Light Snow
7:53 PM 21.0 °F - 19.0 °F 92% 30.08 in 4.0 mi Calm Calm - 0.00 in   Overcast
8:53 PM 21.9 °F - 19.9 °F 92% 30.08 in 3.0 mi Calm Calm - 0.00 in Snow Light Snow
9:48 PM 21.2 °F - 19.4 °F 93% 29.91 in 3.0 mi Calm Calm - 0.00 in Snow Light Snow
9:53 PM 21.9 °F - 19.9 °F 92% 30.09 in 3.0 mi Calm Calm - 0.00 in Snow Light Snow
10:05 PM 21.2 °F - 19.4 °F 93% 29.91 in 2.5 mi Calm Calm - 0.00 in Snow Light Snow
10:13 PM 21.2 °F 16.4 °F 19.4 °F 93% 29.92 in 3.0 mi North 3.5 mph - 0.00 in Snow Light Snow
10:37 PM 21.2 °F - 19.4 °F 93% 29.93 in 3.0 mi Calm Calm - 0.00 in   Overcast
10:53 PM 21.9 °F - 19.9 °F 92% 30.10 in 5.0 mi Calm Calm - 0.00 in   Overcast
11:46 PM 21.2 °F - 19.4 °F 93% 29.95 in 3.0 mi Calm Calm - 0.00 in Snow Light Snow
11:53 PM 21.0 °F - 19.0 °F 92% 30.10 in 3.0 mi Calm Calm - 0.00 in Snow Light Snow